Airfield :
LOGIN :

Register | Disclaimer

   EN    FR    IT 

 










Legend :    VFR   Marginal VFR   IFR   Intensive IFR   Very Intensive IFR
Visi :
Ceiling :
>= 8 km
>= 3000ft
5 to 8 km
1000 to 3000 ft
1500m to 5 km
500 to 1000 ft
800 to 1500m
200 to 500 ft
< 800m
< 200 ft
Symbols :   Thunderstorms  Fog  Heavy snow  Heavy precipitations  Wind > 20 kt
SIGMETs :     Misc.  Thunderstorms  Icing  Turbulence  Mountain Waves  Volcanic Ashes







- Airport Elevation : 2044 ft


ETSA - Landsberg-Lech AB

CURRENT METAR :
  • 300020Z 23008KT 9999 FEW040 SCT140 21/11 Q1016 BLU+

EXPIRED METARs :
  • 292320Z 19004KT 9999 SCT140 19/12 Q1016 BLU+
  • 292220Z 17002KT 9999 SCT150 19/11 Q1015 BLU+

TAF TAF ETSA
Valid from the 29 at 23:00 until the 30 at 11:00 UTC


292205Z 2923/3011 20005KT 9999 NSW FEW050 SCT150 BY ETGL
No reported NOTAMs for that airfield.



MET'MAP, your aeronautical weather chart ! - Copyright ORBIFLY December 2007 - Disclaimer

ORBIFLY MET'MAP TEAM :

Programming & Development : Alexandra Zaïnal
Concept & Development : Baudouin d'Aumeries
Co-Development & Prog : Marc-Olivier Méhu
Technical & hardware support : Manuel Goepfert

Contact : metmap@orbifly.com




SOURCES & CREDITS :

   NOAA